Wetterdaten: Dienstag, 27.10.2015
Datum Zeit Temp. A. Feuchte A. Luftdruck Regen Wind Richtung Richtung Sonnenschein ET UV Solar Taupunkt Windchill Windben Empfang
27.10.2015 00:00 9,4 C 91 % 1018,9 hPa 0,0 l/m 8,0 km/h (2 Bft) O 94 0 min 0,000 mm 0,0 UV-I 0 W/m 8,0 C 8,2 C 14,5 km/h (3 Bft) 100,00 %
27.10.2015 00:05 9,4 C 91 % 1018,8 hPa 0,0 l/m 7,3 km/h (2 Bft) O 82 0 min 0,000 mm 0,0 UV-I 0 W/m 8,0 C 8,7 C 14,5 km/h (3 Bft) 99,10 %
27.10.2015 00:10 9,4 C 91 % 1018,7 hPa 0,0 l/m 9,5 km/h (2 Bft) O-SO 103 0 min 0,000 mm 0,0 UV-I 0 W/m 8,0 C 7,2 C 16,1 km/h (3 Bft) 100,00 %
27.10.2015 00:15 9,4 C 91 % 1018,7 hPa 0,0 l/m 7,7 km/h (2 Bft) O-NO 58 0 min 0,000 mm 0,0 UV-I 0 W/m 8,0 C 8,4 C 14,5 km/h (3 Bft) 99,17 %
27.10.2015 00:20 9,4 C 91 % 1018,7 hPa 0,0 l/m 9,8 km/h (2 Bft) O 92 0 min 0,000 mm 0,0 UV-I 0 W/m 8,0 C 7,1 C 17,7 km/h (3 Bft) 98,29 %
27.10.2015 00:25 9,4 C 91 % 1018,8 hPa 0,0 l/m 9,2 km/h (2 Bft) O-NO 78 0 min 0,000 mm 0,0 UV-I 0 W/m 8,0 C 7,4 C 17,7 km/h (3 Bft) 100,00 %
27.10.2015 00:30 9,5 C 91 % 1018,7 hPa 0,0 l/m 10,0 km/h (2 Bft) O 87 0 min 0,000 mm 0,0 UV-I 0 W/m 8,1 C 7,0 C 17,7 km/h (3 Bft) 99,15 %
27.10.2015 00:35 9,5 C 91 % 1018,7 hPa 0,0 l/m 7,9 km/h (2 Bft) NO 56 0 min 0,000 mm 0,0 UV-I 0 W/m 8,1 C 8,4 C 17,7 km/h (3 Bft) 99,17 %
27.10.2015 00:40 9,4 C 91 % 1018,8 hPa 0,0 l/m 9,3 km/h (2 Bft) O-NO 75 0 min 0,000 mm 0,0 UV-I 0 W/m 8,0 C 7,4 C 17,7 km/h (3 Bft) 100,00 %
27.10.2015 00:45 9,5 C 91 % 1018,8 hPa 0,0 l/m 11,0 km/h (2 Bft) O-NO 71 0 min 0,000 mm 0,0 UV-I 0 W/m 8,1 C 6,5 C 17,7 km/h (3 Bft) 100,00 %
27.10.2015 00:50 9,5 C 91 % 1018,8 hPa 0,0 l/m 10,8 km/h (2 Bft) O 79 0 min 0,000 mm 0,0 UV-I 0 W/m 8,1 C 6,6 C 19,3 km/h (3 Bft) 98,15 %
27.10.2015 00:55 9,5 C 91 % 1018,8 hPa 0,0 l/m 10,5 km/h (2 Bft) O-SO 107 0 min 0,000 mm 0,0 UV-I 0 W/m 8,1 C 6,8 C 19,3 km/h (3 Bft) 100,00 %
27.10.2015 01:00 9,5 C 90 % 1018,8 hPa 0,0 l/m 11,4 km/h (2 Bft) O 80 0 min 0,000 mm 0,0 UV-I 0 W/m 7,9 C 6,3 C 17,7 km/h (3 Bft) 99,17 %
27.10.2015 01:05 9,6 C 90 % 1018,7 hPa 0,0 l/m 13,0 km/h (3 Bft) O 79 0 min 0,000 mm 0,0 UV-I 0 W/m 8,0 C 5,6 C 20,9 km/h (4 Bft) 99,17 %
27.10.2015 01:10 9,6 C 90 % 1018,7 hPa 0,0 l/m 11,5 km/h (2 Bft) NO 55 0 min 0,000 mm 0,0 UV-I 0 W/m 8,0 C 6,3 C 17,7 km/h (3 Bft) 99,08 %
27.10.2015 01:15 9,6 C 90 % 1018,7 hPa 0,0 l/m 13,9 km/h (3 Bft) NO 51 0 min 0,000 mm 0,0 UV-I 0 W/m 8,0 C 5,1 C 24,1 km/h (4 Bft) 99,15 %
27.10.2015 01:20 9,6 C 90 % 1018,7 hPa 0,0 l/m 8,9 km/h (2 Bft) O-NO 70 0 min 0,000 mm 0,0 UV-I 0 W/m 8,0 C 7,8 C 17,7 km/h (3 Bft) 99,15 %
27.10.2015 01:25 9,6 C 90 % 1018,7 hPa 0,0 l/m 13,9 km/h (3 Bft) O 84 0 min 0,000 mm 0,0 UV-I 0 W/m 8,0 C 5,1 C 25,7 km/h (4 Bft) 98,35 %
27.10.2015 01:30 9,6 C 90 % 1018,7 hPa 0,0 l/m 15,3 km/h (3 Bft) O 92 0 min 0,000 mm 0,0 UV-I 0 W/m 8,0 C 4,5 C 24,1 km/h (4 Bft) 97,44 %
27.10.2015 01:35 9,7 C 90 % 1018,6 hPa 0,0 l/m 11,3 km/h (2 Bft) O-NO 62 0 min 0,000 mm 0,0 UV-I 0 W/m 8,1 C 6,5 C 19,3 km/h (3 Bft) 100,00 %
27.10.2015 01:40 9,6 C 90 % 1018,6 hPa 0,0 l/m 13,2 km/h (3 Bft) NO 40 0 min 0,000 mm 0,0 UV-I 0 W/m 8,0 C 5,5 C 20,9 km/h (4 Bft) 98,21 %
27.10.2015 01:45 9,6 C 90 % 1018,6 hPa 0,0 l/m 10,5 km/h (2 Bft) O 101 0 min 0,000 mm 0,0 UV-I 0 W/m 8,0 C 6,9 C 17,7 km/h (3 Bft) 100,00 %
27.10.2015 01:50 9,6 C 90 % 1018,6 hPa 0,0 l/m 10,8 km/h (2 Bft) O 92 0 min 0,000 mm 0,0 UV-I 0 W/m 8,0 C 6,7 C 17,7 km/h (3 Bft) 98,31 %
27.10.2015 01:55 9,6 C 90 % 1018,6 hPa 0,0 l/m 11,0 km/h (2 Bft) NO 40 0 min 0,000 mm 0,0 UV-I 0 W/m 8,0 C 6,6 C 19,3 km/h (3 Bft) 100,00 %
27.10.2015 02:00 9,6 C 90 % 1018,6 hPa 0,0 l/m 13,2 km/h (3 Bft) NO 44 0 min 0,025 mm 0,0 UV-I 0 W/m 8,0 C 5,5 C 20,9 km/h (4 Bft) 99,17 %
27.10.2015 02:05 9,6 C 90 % 1018,5 hPa 0,0 l/m 7,9 km/h (2 Bft) O 101 0 min 0,000 mm 0,0 UV-I 0 W/m 8,0 C 8,5 C 16,1 km/h (3 Bft) 100,00 %
27.10.2015 02:10 9,6 C 90 % 1018,6 hPa 0,0 l/m 12,3 km/h (3 Bft) O-SO 103 0 min 0,000 mm 0,0 UV-I 0 W/m 8,0 C 5,9 C 20,9 km/h (4 Bft) 99,19 %
27.10.2015 02:15 9,6 C 90 % 1018,5 hPa 0,0 l/m 12,0 km/h (2 Bft) O 92 0 min 0,000 mm 0,0 UV-I 0 W/m 8,0 C 6,1 C 19,3 km/h (3 Bft) 100,00 %
27.10.2015 02:20 9,6 C 90 % 1018,4 hPa 0,0 l/m 10,2 km/h (2 Bft) O 83 0 min 0,000 mm 0,0 UV-I 0 W/m 8,0 C 7,0 C 17,7 km/h (3 Bft) 100,00 %
27.10.2015 02:25 9,6 C 90 % 1018,4 hPa 0,0 l/m 12,7 km/h (3 Bft) O 86 0 min 0,000 mm 0,0 UV-I 0 W/m 8,0 C 5,7 C 24,1 km/h (4 Bft) 100,00 %
27.10.2015 02:30 9,6 C 89 % 1018,4 hPa 0,0 l/m 13,5 km/h (3 Bft) O-NO 74 0 min 0,000 mm 0,0 UV-I 0 W/m 7,9 C 5,3 C 22,5 km/h (4 Bft) 100,00 %
27.10.2015 02:35 9,6 C 90 % 1018,4 hPa 0,0 l/m 12,8 km/h (3 Bft) O 98 0 min 0,000 mm 0,0 UV-I 0 W/m 8,0 C 5,7 C 20,9 km/h (4 Bft) 100,00 %
27.10.2015 02:40 9,6 C 90 % 1018,4 hPa 0,0 l/m 10,8 km/h (2 Bft) O 89 0 min 0,000 mm 0,0 UV-I 0 W/m 8,0 C 6,7 C 20,9 km/h (4 Bft) 100,00 %
27.10.2015 02:45 9,6 C 89 % 1018,4 hPa 0,0 l/m 11,7 km/h (2 Bft) NO 42 0 min 0,000 mm 0,0 UV-I 0 W/m 7,9 C 6,2 C 20,9 km/h (4 Bft) 98,39 %
27.10.2015 02:50 9,6 C 90 % 1018,3 hPa 0,0 l/m 10,2 km/h (2 Bft) O 101 0 min 0,000 mm 0,0 UV-I 0 W/m 8,0 C 7,0 C 19,3 km/h (3 Bft) 98,29 %
27.10.2015 02:55 9,6 C 90 % 1018,2 hPa 0,0 l/m 11,4 km/h (2 Bft) O-SO 112 0 min 0,000 mm 0,0 UV-I 0 W/m 8,0 C 6,4 C 24,1 km/h (4 Bft) 100,00 %
27.10.2015 03:00 9,6 C 90 % 1018,2 hPa 0,0 l/m 9,2 km/h (2 Bft) O-NO 59 0 min 0,026 mm 0,0 UV-I 0 W/m 8,0 C 7,6 C 17,7 km/h (3 Bft) 100,00 %
27.10.2015 03:05 9,6 C 89 % 1018,2 hPa 0,0 l/m 11,8 km/h (2 Bft) O-SO 111 0 min 0,000 mm 0,0 UV-I 0 W/m 7,9 C 6,2 C 20,9 km/h (4 Bft) 100,00 %
27.10.2015 03:10 9,6 C 90 % 1018,2 hPa 0,0 l/m 9,2 km/h (2 Bft) O 90 0 min 0,000 mm 0,0 UV-I 0 W/m 8,0 C 7,6 C 17,7 km/h (3 Bft) 99,17 %
27.10.2015 03:15 9,6 C 90 % 1018,2 hPa 0,0 l/m 9,4 km/h (2 Bft) O-NO 57 0 min 0,000 mm 0,0 UV-I 0 W/m 8,0 C 7,5 C 16,1 km/h (3 Bft) 100,00 %
27.10.2015 03:20 9,5 C 90 % 1018,2 hPa 0,0 l/m 10,5 km/h (2 Bft) O-SO 115 0 min 0,000 mm 0,0 UV-I 0 W/m 7,9 C 6,8 C 17,7 km/h (3 Bft) 99,15 %
27.10.2015 03:25 9,5 C 90 % 1018,2 hPa 0,0 l/m 9,2 km/h (2 Bft) O 80 0 min 0,000 mm 0,0 UV-I 0 W/m 7,9 C 7,5 C 17,7 km/h (3 Bft) 97,46 %
27.10.2015 03:30 9,5 C 90 % 1018,2 hPa 0,0 l/m 9,6 km/h (2 Bft) O 82 0 min 0,000 mm 0,0 UV-I 0 W/m 7,9 C 7,3 C 17,7 km/h (3 Bft) 99,15 %
27.10.2015 03:35 9,5 C 90 % 1018,2 hPa 0,0 l/m 11,9 km/h (2 Bft) O 84 0 min 0,000 mm 0,0 UV-I 0 W/m 7,9 C 6,0 C 22,5 km/h (4 Bft) 98,33 %
27.10.2015 03:40 9,4 C 90 % 1018,2 hPa 0,0 l/m 7,8 km/h (2 Bft) O-SO 121 0 min 0,000 mm 0,0 UV-I 0 W/m 7,8 C 8,4 C 16,1 km/h (3 Bft) 99,15 %
27.10.2015 03:45 9,4 C 90 % 1018,2 hPa 0,0 l/m 8,5 km/h (2 Bft) NO 45 0 min 0,000 mm 0,0 UV-I 0 W/m 7,8 C 7,9 C 14,5 km/h (3 Bft) 99,17 %
27.10.2015 03:50 9,4 C 90 % 1018,2 hPa 0,0 l/m 10,2 km/h (2 Bft) O-NO 57 0 min 0,000 mm 0,0 UV-I 0 W/m 7,8 C 6,8 C 17,7 km/h (3 Bft) 99,08 %
27.10.2015 03:55 9,4 C 90 % 1018,2 hPa 0,0 l/m 10,2 km/h (2 Bft) O 97 0 min 0,000 mm 0,0 UV-I 0 W/m 7,8 C 6,8 C 17,7 km/h (3 Bft) 100,00 %
27.10.2015 04:00 9,4 C 90 % 1018,1 hPa 0,0 l/m 8,8 km/h (2 Bft) NO 55 0 min 0,000 mm 0,0 UV-I 0 W/m 7,8 C 7,7 C 17,7 km/h (3 Bft) 99,17 %
27.10.2015 04:05 9,4 C 90 % 1018,1 hPa 0,0 l/m 9,7 km/h (2 Bft) O 94 0 min 0,000 mm 0,0 UV-I 0 W/m 7,8 C 7,1 C 19,3 km/h (3 Bft) 98,95 %
27.10.2015 04:10 9,4 C 90 % 1018,0 hPa 0,0 l/m 8,6 km/h (2 Bft) NO 42 0 min 0,000 mm 0,0 UV-I 0 W/m 7,8 C 7,8 C 16,1 km/h (3 Bft) 100,00 %
27.10.2015 04:15 9,4 C 90 % 1018,1 hPa 0,0 l/m 10,0 km/h (2 Bft) O 84 0 min 0,000 mm 0,0 UV-I 0 W/m 7,8 C 6,9 C 19,3 km/h (3 Bft) 99,15 %
27.10.2015 04:20 9,4 C 91 % 1018,1 hPa 0,0 l/m 5,8 km/h (2 Bft) O 94 0 min 0,000 mm 0,0 UV-I 0 W/m 8,0 C 9,4 C 16,1 km/h (3 Bft) 98,31 %
27.10.2015 04:25 9,4 C 91 % 1018,1 hPa 0,0 l/m 6,0 km/h (2 Bft) O 89 0 min 0,000 mm 0,0 UV-I 0 W/m 8,0 C 9,4 C 11,3 km/h (2 Bft) 97,50 %
27.10.2015 04:30 9,3 C 91 % 1018,1 hPa 0,0 l/m 6,3 km/h (2 Bft) O-NO 67 0 min 0,000 mm 0,0 UV-I 0 W/m 7,9 C 9,3 C 11,3 km/h (2 Bft) 100,00 %
27.10.2015 04:35 9,3 C 91 % 1018,2 hPa 0,0 l/m 7,6 km/h (2 Bft) O 79 0 min 0,000 mm 0,0 UV-I 0 W/m 7,9 C 8,4 C 14,5 km/h (3 Bft) 100,00 %
27.10.2015 04:40 9,3 C 91 % 1018,1 hPa 0,0 l/m 5,0 km/h (1 Bft) O-NO 69 0 min 0,000 mm 0,0 UV-I 0 W/m 7,9 C 9,3 C 11,3 km/h (2 Bft) 99,17 %
27.10.2015 04:45 9,2 C 91 % 1018,1 hPa 0,0 l/m 4,3 km/h (1 Bft) O-NO 74 0 min 0,000 mm 0,0 UV-I 0 W/m 7,8 C 9,2 C 12,9 km/h (3 Bft) 100,00 %
27.10.2015 04:50 9,2 C 91 % 1018,1 hPa 0,0 l/m 4,8 km/h (1 Bft) O 91 0 min 0,000 mm 0,0 UV-I 0 W/m 7,8 C 9,2 C 9,7 km/h (2 Bft) 97,46 %
27.10.2015 04:55 9,1 C 91 % 1018,1 hPa 0,0 l/m 5,7 km/h (1 Bft) O 82 0 min 0,000 mm 0,0 UV-I 0 W/m 7,7 C 9,1 C 12,9 km/h (3 Bft) 100,00 %
27.10.2015 05:00 9,1 C 92 % 1018,1 hPa 0,0 l/m 3,3 km/h (1 Bft) O-NO 65 0 min 0,000 mm 0,0 UV-I 0 W/m 7,9 C 9,1 C 6,4 km/h (2 Bft) 99,15 %
27.10.2015 05:05 9,0 C 92 % 1018,0 hPa 0,0 l/m 4,4 km/h (1 Bft) O-NO 77 0 min 0,000 mm 0,0 UV-I 0 W/m 7,8 C 9,0 C 11,3 km/h (2 Bft) 96,88 %
27.10.2015 05:10 8,9 C 92 % 1018,0 hPa 0,0 l/m 5,8 km/h (2 Bft) O-NO 72 0 min 0,000 mm 0,0 UV-I 0 W/m 7,7 C 8,9 C 12,9 km/h (3 Bft) 99,24 %
27.10.2015 05:15 8,9 C 92 % 1018,0 hPa 0,0 l/m 4,5 km/h (1 Bft) O 82 0 min 0,000 mm 0,0 UV-I 0 W/m 7,7 C 8,9 C 12,9 km/h (3 Bft) 100,00 %
27.10.2015 05:20 8,8 C 92 % 1018,0 hPa 0,0 l/m 5,2 km/h (1 Bft) O-NO 66 0 min 0,000 mm 0,0 UV-I 0 W/m 7,6 C 8,8 C 12,9 km/h (3 Bft) 99,15 %
27.10.2015 05:25 8,8 C 92 % 1017,9 hPa 0,0 l/m 4,6 km/h (1 Bft) N-NO 25 0 min 0,000 mm 0,0 UV-I 0 W/m 7,6 C 8,8 C 11,3 km/h (2 Bft) 98,31 %
27.10.2015 05:30 8,8 C 92 % 1017,9 hPa 0,0 l/m 4,5 km/h (1 Bft) NO 56 0 min 0,000 mm 0,0 UV-I 0 W/m 7,6 C 8,8 C 9,7 km/h (2 Bft) 97,46 %
27.10.2015 05:35 8,7 C 92 % 1017,9 hPa 0,0 l/m 4,7 km/h (1 Bft) O 84 0 min 0,000 mm 0,0 UV-I 0 W/m 7,5 C 8,7 C 11,3 km/h (2 Bft) 100,00 %
27.10.2015 05:40 8,7 C 92 % 1018,0 hPa 0,0 l/m 5,0 km/h (1 Bft) O-NO 76 0 min 0,000 mm 0,0 UV-I 0 W/m 7,5 C 8,7 C 12,9 km/h (3 Bft) 100,00 %
27.10.2015 05:45 8,7 C 93 % 1018,0 hPa 0,0 l/m 4,5 km/h (1 Bft) O 83 0 min 0,000 mm 0,0 UV-I 0 W/m 7,6 C 8,7 C 9,7 km/h (2 Bft) 98,31 %
27.10.2015 05:50 8,7 C 93 % 1018,0 hPa 0,0 l/m 5,1 km/h (1 Bft) O 82 0 min 0,000 mm 0,0 UV-I 0 W/m 7,6 C 8,7 C 9,7 km/h (2 Bft) 100,00 %
27.10.2015 05:55 8,6 C 93 % 1018,1 hPa 0,0 l/m 5,8 km/h (2 Bft) O 80 0 min 0,000 mm 0,0 UV-I 0 W/m 7,5 C 8,6 C 12,9 km/h (3 Bft) 100,00 %
27.10.2015 06:00 8,6 C 93 % 1018,1 hPa 0,0 l/m 5,0 km/h (1 Bft) O-NO 71 0 min 0,000 mm 0,0 UV-I 0 W/m 7,5 C 8,6 C 11,3 km/h (2 Bft) 98,29 %
27.10.2015 06:05 8,6 C 93 % 1018,1 hPa 0,0 l/m 5,4 km/h (1 Bft) O 100 0 min 0,000 mm 0,0 UV-I 0 W/m 7,5 C 8,6 C 11,3 km/h (2 Bft) 99,08 %
27.10.2015 06:10 8,6 C 93 % 1018,2 hPa 0,0 l/m 3,6 km/h (1 Bft) O 88 0 min 0,000 mm 0,0 UV-I 0 W/m 7,5 C 8,6 C 9,7 km/h (2 Bft) 99,15 %
27.10.2015 06:15 8,6 C 93 % 1018,1 hPa 0,0 l/m 4,8 km/h (1 Bft) O 92 0 min 0,000 mm 0,0 UV-I 0 W/m 7,5 C 8,6 C 12,9 km/h (3 Bft) 99,15 %
27.10.2015 06:20 8,5 C 93 % 1018,2 hPa 0,0 l/m 5,6 km/h (1 Bft) O-NO 63 0 min 0,000 mm 0,0 UV-I 0 W/m 7,4 C 8,5 C 11,3 km/h (2 Bft) 100,00 %
27.10.2015 06:25 8,5 C 93 % 1018,2 hPa 0,0 l/m 5,8 km/h (2 Bft) NO 49 0 min 0,000 mm 0,0 UV-I 0 W/m 7,4 C 8,5 C 12,9 km/h (3 Bft) 99,15 %
27.10.2015 06:30 8,4 C 93 % 1018,2 hPa 0,0 l/m 5,3 km/h (1 Bft) O 85 0 min 0,000 mm 0,0 UV-I 0 W/m 7,3 C 8,4 C 11,3 km/h (2 Bft) 99,15 %
27.10.2015 06:35 8,4 C 93 % 1018,2 hPa 0,0 l/m 4,5 km/h (1 Bft) O 85 0 min 0,000 mm 0,0 UV-I 0 W/m 7,3 C 8,4 C 9,7 km/h (2 Bft) 100,00 %
27.10.2015 06:40 8,3 C 93 % 1018,2 hPa 0,0 l/m 4,9 km/h (1 Bft) NO 56 0 min 0,000 mm 0,0 UV-I 0 W/m 7,2 C 8,3 C 11,3 km/h (2 Bft) 100,00 %
27.10.2015 06:45 8,3 C 94 % 1018,2 hPa 0,0 l/m 5,5 km/h (1 Bft) O-NO 69 0 min 0,000 mm 0,0 UV-I 0 W/m 7,4 C 8,3 C 9,7 km/h (2 Bft) 99,15 %
27.10.2015 06:50 8,3 C 93 % 1018,2 hPa 0,0 l/m 4,6 km/h (1 Bft) O 90 0 min 0,000 mm 0,0 UV-I 0 W/m 7,2 C 8,3 C 8,0 km/h (2 Bft) 96,69 %
27.10.2015 06:55 8,3 C 94 % 1018,2 hPa 0,0 l/m 4,5 km/h (1 Bft) O 79 0 min 0,000 mm 0,0 UV-I 3 W/m 7,4 C 8,3 C 9,7 km/h (2 Bft) 99,17 %
27.10.2015 07:00 8,3 C 94 % 1018,2 hPa 0,0 l/m 4,1 km/h (1 Bft) O-NO 69 0 min 0,000 mm 0,0 UV-I 5 W/m 7,4 C 8,3 C 8,0 km/h (2 Bft) 99,08 %
27.10.2015 07:05 8,3 C 94 % 1018,3 hPa 0,0 l/m 4,4 km/h (1 Bft) O 84 0 min 0,000 mm 0,0 UV-I 7 W/m 7,4 C 8,3 C 9,7 km/h (2 Bft) 99,17 %
27.10.2015 07:10 8,3 C 94 % 1018,3 hPa 0,0 l/m 3,2 km/h (1 Bft) O-SO 103 0 min 0,000 mm 0,0 UV-I 9 W/m 7,4 C 8,3 C 8,0 km/h (2 Bft) 99,17 %
27.10.2015 07:15 8,3 C 94 % 1018,4 hPa 0,0 l/m 5,5 km/h (1 Bft) N-NO 16 0 min 0,000 mm 0,0 UV-I 11 W/m 7,4 C 8,3 C 11,3 km/h (2 Bft) 99,15 %
27.10.2015 07:20 8,3 C 94 % 1018,3 hPa 0,0 l/m 4,2 km/h (1 Bft) O 85 0 min 0,000 mm 0,0 UV-I 12 W/m 7,4 C 8,3 C 6,4 km/h (2 Bft) 100,00 %
27.10.2015 07:25 8,3 C 94 % 1018,3 hPa 0,0 l/m 4,2 km/h (1 Bft) O 82 0 min 0,000 mm 0,0 UV-I 14 W/m 7,4 C 8,3 C 11,3 km/h (2 Bft) 98,35 %
27.10.2015 07:30 8,3 C 94 % 1018,3 hPa 0,0 l/m 5,0 km/h (1 Bft) O-NO 61 0 min 0,000 mm 0,0 UV-I 17 W/m 7,4 C 8,3 C 9,7 km/h (2 Bft) 99,17 %
27.10.2015 07:35 8,4 C 94 % 1018,3 hPa 0,0 l/m 4,4 km/h (1 Bft) O 80 0 min 0,000 mm 0,0 UV-I 20 W/m 7,5 C 8,4 C 8,0 km/h (2 Bft) 100,00 %
27.10.2015 07:40 8,4 C 94 % 1018,4 hPa 0,0 l/m 3,7 km/h (1 Bft) O 86 0 min 0,000 mm 0,0 UV-I 21 W/m 7,5 C 8,4 C 8,0 km/h (2 Bft) 97,46 %
27.10.2015 07:45 8,4 C 94 % 1018,5 hPa 0,0 l/m 2,6 km/h (1 Bft) O-NO 60 0 min 0,000 mm 0,0 UV-I 25 W/m 7,5 C 8,4 C 4,8 km/h (1 Bft) 100,00 %
27.10.2015 07:50 8,5 C 94 % 1018,5 hPa 0,0 l/m 4,6 km/h (1 Bft) O-NO 67 0 min 0,000 mm 0,0 UV-I 33 W/m 7,6 C 8,5 C 9,7 km/h (2 Bft) 100,00 %
27.10.2015 07:55 8,5 C 93 % 1018,5 hPa 0,0 l/m 4,9 km/h (1 Bft) O-NO 72 5 min 0,000 mm 0,0 UV-I 35 W/m 7,4 C 8,5 C 11,3 km/h (2 Bft) 99,21 %
27.10.2015 08:00 8,6 C 93 % 1018,5 hPa 0,0 l/m 5,5 km/h (1 Bft) O 89 5 min 0,000 mm 0,0 UV-I 42 W/m 7,5 C 8,6 C 11,3 km/h (2 Bft) 99,06 %
27.10.2015 08:05 8,6 C 93 % 1018,5 hPa 0,0 l/m 5,3 km/h (1 Bft) O 96 5 min 0,000 mm 0,0 UV-I 46 W/m 7,5 C 8,6 C 11,3 km/h (2 Bft) 98,37 %
27.10.2015 08:10 8,7 C 93 % 1018,5 hPa 0,0 l/m 5,0 km/h (1 Bft) O-SO 123 5 min 0,000 mm 0,0 UV-I 50 W/m 7,6 C 8,7 C 11,3 km/h (2 Bft) 97,46 %
27.10.2015 08:15 8,7 C 93 % 1018,5 hPa 0,0 l/m 5,1 km/h (1 Bft) NO 56 5 min 0,000 mm 0,0 UV-I 53 W/m 7,6 C 8,7 C 11,3 km/h (2 Bft) 98,29 %
27.10.2015 08:20 8,7 C 93 % 1018,6 hPa 0,0 l/m 4,0 km/h (1 Bft) O 89 5 min 0,000 mm 0,0 UV-I 59 W/m 7,6 C 8,7 C 11,3 km/h (2 Bft) 98,35 %
27.10.2015 08:25 8,8 C 93 % 1018,7 hPa 0,0 l/m 3,7 km/h (1 Bft) O-NO 78 0 min 0,000 mm 0,0 UV-I 54 W/m 7,7 C 8,8 C 8,0 km/h (2 Bft) 99,06 %
27.10.2015 08:30 8,8 C 93 % 1018,6 hPa 0,0 l/m 4,0 km/h (1 Bft) O 96 0 min 0,000 mm 0,0 UV-I 59 W/m 7,7 C 8,8 C 9,7 km/h (2 Bft) 99,17 %
27.10.2015 08:35 8,8 C 93 % 1018,6 hPa 0,0 l/m 5,5 km/h (1 Bft) O-NO 73 0 min 0,000 mm 0,0 UV-I 68 W/m 7,7 C 8,8 C 11,3 km/h (2 Bft) 100,00 %
27.10.2015 08:40 8,9 C 92 % 1018,7 hPa 0,0 l/m 4,4 km/h (1 Bft) O 79 0 min 0,000 mm 0,0 UV-I 59 W/m 7,7 C 8,9 C 8,0 km/h (2 Bft) 98,31 %
27.10.2015 08:45 8,9 C 92 % 1018,7 hPa 0,0 l/m 4,8 km/h (1 Bft) O 84 0 min 0,000 mm 0,0 UV-I 58 W/m 7,7 C 8,9 C 12,9 km/h (3 Bft) 99,07 %
27.10.2015 08:50 9,1 C 92 % 1018,7 hPa 0,0 l/m 7,3 km/h (2 Bft) O-SO 121 0 min 0,000 mm 0,0 UV-I 63 W/m 7,9 C 8,4 C 11,3 km/h (2 Bft) 99,15 %
27.10.2015 08:55 9,1 C 92 % 1018,6 hPa 0,0 l/m 5,5 km/h (1 Bft) O 79 0 min 0,000 mm 0,0 UV-I 74 W/m 7,9 C 9,1 C 16,1 km/h (3 Bft) 99,17 %
27.10.2015 09:00 9,1 C 92 % 1018,6 hPa 0,0 l/m 7,3 km/h (2 Bft) O 94 0 min 0,000 mm 0,0 UV-I 67 W/m 7,9 C 8,4 C 14,5 km/h (3 Bft) 100,00 %
27.10.2015 09:05 9,2 C 91 % 1018,7 hPa 0,0 l/m 8,5 km/h (2 Bft) O 94 0 min 0,025 mm 0,0 UV-I 72 W/m 7,8 C 7,7 C 17,7 km/h (3 Bft) 99,17 %
27.10.2015 09:10 9,2 C 91 % 1018,7 hPa 0,0 l/m 10,5 km/h (2 Bft) O 100 0 min 0,000 mm 0,0 UV-I 70 W/m 7,8 C 6,4 C 17,7 km/h (3 Bft) 100,00 %
27.10.2015 09:15 9,2 C 91 % 1018,7 hPa 0,0 l/m 9,4 km/h (2 Bft) O 86 0 min 0,000 mm 0,0 UV-I 75 W/m 7,8 C 7,1 C 16,1 km/h (3 Bft) 100,00 %
27.10.2015 09:20 9,3 C 90 % 1018,8 hPa 0,0 l/m 7,6 km/h (2 Bft) O-SO 103 0 min 0,000 mm 0,0 UV-I 65 W/m 7,7 C 8,4 C 14,5 km/h (3 Bft) 98,33 %
27.10.2015 09:25 9,3 C 91 % 1018,8 hPa 0,0 l/m 5,9 km/h (2 Bft) O 91 0 min 0,000 mm 0,0 UV-I 60 W/m 7,9 C 9,3 C 9,7 km/h (2 Bft) 100,00 %
27.10.2015 09:35 9,4 C 90 % 1018,7 hPa 0,0 l/m 6,3 km/h (2 Bft) O-NO 69 0 min 0,000 mm 0,0 UV-I 88 W/m 7,8 C 9,4 C 12,9 km/h (3 Bft) 99,70 %
27.10.2015 09:40 9,4 C 90 % 1018,8 hPa 0,0 l/m 8,5 km/h (2 Bft) O-NO 62 0 min 0,000 mm 0,0 UV-I 82 W/m 7,8 C 7,9 C 16,1 km/h (3 Bft) 100,00 %
27.10.2015 09:45 9,5 C 90 % 1018,8 hPa 0,0 l/m 9,5 km/h (2 Bft) O-SO 107 0 min 0,000 mm 0,1 UV-I 94 W/m 7,9 C 7,3 C 16,1 km/h (3 Bft) 100,00 %
27.10.2015 09:50 9,6 C 89 % 1018,8 hPa 0,0 l/m 7,4 km/h (2 Bft) O-NO 71 0 min 0,000 mm 0,5 UV-I 118 W/m 7,9 C 8,9 C 12,9 km/h (3 Bft) 98,26 %
27.10.2015 09:55 9,6 C 89 % 1018,8 hPa 0,0 l/m 9,7 km/h (2 Bft) O-NO 67 0 min 0,000 mm 0,2 UV-I 101 W/m 7,9 C 7,3 C 19,3 km/h (3 Bft) 100,00 %
27.10.2015 10:00 9,7 C 89 % 1018,9 hPa 0,0 l/m 8,3 km/h (2 Bft) O-SO 115 0 min 0,051 mm 0,2 UV-I 95 W/m 8,0 C 8,3 C 14,5 km/h (3 Bft) 99,15 %
27.10.2015 10:05 9,7 C 88 % 1018,9 hPa 0,0 l/m 9,5 km/h (2 Bft) O 99 0 min 0,000 mm 0,3 UV-I 101 W/m 7,8 C 7,6 C 19,3 km/h (3 Bft) 100,00 %
27.10.2015 10:10 9,7 C 88 % 1018,8 hPa 0,0 l/m 10,8 km/h (2 Bft) O-NO 65 0 min 0,000 mm 0,3 UV-I 100 W/m 7,8 C 6,8 C 17,7 km/h (3 Bft) 100,00 %
27.10.2015 10:15 9,7 C 89 % 1018,8 hPa 0,0 l/m 9,2 km/h (2 Bft) O-NO 67 0 min 0,000 mm 0,6 UV-I 116 W/m 8,0 C 7,7 C 16,1 km/h (3 Bft) 98,52 %
27.10.2015 10:20 9,8 C 88 % 1018,8 hPa 0,0 l/m 8,5 km/h (2 Bft) O-NO 60 0 min 0,000 mm 0,5 UV-I 114 W/m 7,9 C 8,3 C 16,1 km/h (3 Bft) 99,11 %
27.10.2015 10:25 9,8 C 87 % 1018,8 hPa 0,0 l/m 10,3 km/h (2 Bft) O 94 0 min 0,000 mm 0,6 UV-I 113 W/m 7,7 C 7,2 C 19,3 km/h (3 Bft) 100,00 %
27.10.2015 10:30 9,8 C 88 % 1018,7 hPa 0,0 l/m 11,7 km/h (2 Bft) NO 36 0 min 0,000 mm 0,6 UV-I 115 W/m 7,9 C 6,4 C 17,7 km/h (3 Bft) 100,00 %
27.10.2015 10:35 9,8 C 87 % 1018,7 hPa 0,0 l/m 11,6 km/h (2 Bft) O-NO 62 0 min 0,000 mm 0,7 UV-I 138 W/m 7,7 C 6,5 C 20,9 km/h (4 Bft) 100,00 %
27.10.2015 10:40 9,9 C 87 % 1018,7 hPa 0,0 l/m 9,1 km/h (2 Bft) O-SO 106 0 min 0,000 mm 0,7 UV-I 146 W/m 7,8 C 8,0 C 17,7 km/h (3 Bft) 100,00 %
27.10.2015 10:45 10,0 C 87 % 1018,7 hPa 0,0 l/m 8,8 km/h (2 Bft) O-NO 64 0 min 0,000 mm 0,8 UV-I 161 W/m 7,9 C 8,3 C 16,1 km/h (3 Bft) 98,21 %
27.10.2015 10:50 10,1 C 87 % 1018,7 hPa 0,0 l/m 9,2 km/h (2 Bft) O-NO 78 0 min 0,000 mm 0,7 UV-I 146 W/m 8,0 C 8,2 C 17,7 km/h (3 Bft) 98,29 %
27.10.2015 10:55 10,1 C 87 % 1018,6 hPa 0,0 l/m 8,5 km/h (2 Bft) O-NO 78 0 min 0,000 mm 0,8 UV-I 154 W/m 8,0 C 8,6 C 17,7 km/h (3 Bft) 98,21 %
27.10.2015 11:00 10,2 C 86 % 1018,6 hPa 0,0 l/m 9,5 km/h (2 Bft) O 85 0 min 0,076 mm 0,9 UV-I 177 W/m 8,0 C 8,1 C 17,7 km/h (3 Bft) 98,43 %
27.10.2015 11:05 10,2 C 87 % 1018,6 hPa 0,0 l/m 9,6 km/h (2 Bft) O-NO 66 0 min 0,000 mm 0,9 UV-I 175 W/m 8,1 C 8,0 C 17,7 km/h (3 Bft) 99,12 %
27.10.2015 11:10 10,3 C 86 % 1018,6 hPa 0,0 l/m 9,6 km/h (2 Bft) O 95 0 min 0,000 mm 0,9 UV-I 183 W/m 8,1 C 8,2 C 17,7 km/h (3 Bft) 100,00 %
27.10.2015 11:15 10,3 C 86 % 1018,6 hPa 0,0 l/m 8,1 km/h (2 Bft) O 80 0 min 0,000 mm 0,9 UV-I 167 W/m 8,1 C 9,1 C 19,3 km/h (3 Bft) 99,19 %
27.10.2015 11:20 10,3 C 86 % 1018,6 hPa 0,0 l/m 8,2 km/h (2 Bft) O 99 0 min 0,000 mm 0,9 UV-I 179 W/m 8,1 C 9,0 C 16,1 km/h (3 Bft) 99,12 %
27.10.2015 11:25 10,5 C 86 % 1018,5 hPa 0,0 l/m 8,2 km/h (2 Bft) O-NO 74 0 min 0,000 mm 1,0 UV-I 198 W/m 8,3 C 9,2 C 16,1 km/h (3 Bft) 100,00 %
27.10.2015 11:30 10,6 C 86 % 1018,5 hPa 0,0 l/m 8,9 km/h (2 Bft) SO 126 0 min 0,000 mm 1,1 UV-I 221 W/m 8,4 C 8,9 C 19,3 km/h (3 Bft) 100,00 %
27.10.2015 11:35 10,7 C 86 % 1018,4 hPa 0,0 l/m 6,8 km/h (2 Bft) O 87 0 min 0,000 mm 1,2 UV-I 232 W/m 8,5 C 10,4 C 12,9 km/h (3 Bft) 100,00 %
27.10.2015 11:40 10,7 C 86 % 1018,4 hPa 0,0 l/m 8,5 km/h (2 Bft) O 90 0 min 0,000 mm 1,1 UV-I 204 W/m 8,5 C 9,3 C 14,5 km/h (3 Bft) 100,00 %
27.10.2015 11:45 10,7 C 85 % 1018,3 hPa 0,0 l/m 10,3 km/h (2 Bft) O-NO 65 0 min 0,000 mm 1,1 UV-I 200 W/m 8,3 C 8,2 C 19,3 km/h (3 Bft) 100,00 %
27.10.2015 11:50 10,8 C 85 % 1018,3 hPa 0,0 l/m 6,8 km/h (2 Bft) O-NO 76 0 min 0,000 mm 1,1 UV-I 209 W/m 8,4 C 10,5 C 14,5 km/h (3 Bft) 100,00 %
27.10.2015 11:55 10,7 C 85 % 1018,1 hPa 0,0 l/m 8,5 km/h (2 Bft) O 81 0 min 0,000 mm 1,1 UV-I 193 W/m 8,3 C 9,3 C 12,9 km/h (3 Bft) 99,08 %
27.10.2015 12:00 11,0 C 85 % 1018,0 hPa 0,0 l/m 6,5 km/h (2 Bft) NO 51 5 min 0,102 mm 1,3 UV-I 294 W/m 8,6 C 11,0 C 11,3 km/h (2 Bft) 99,15 %
27.10.2015 12:05 11,3 C 84 % 1018,0 hPa 0,0 l/m 7,3 km/h (2 Bft) O-NO 57 5 min 0,000 mm 1,2 UV-I 302 W/m 8,7 C 10,7 C 14,5 km/h (3 Bft) 97,58 %
27.10.2015 12:10 11,2 C 84 % 1017,9 hPa 0,0 l/m 5,8 km/h (2 Bft) O-NO 65 0 min 0,000 mm 1,1 UV-I 250 W/m 8,6 C 11,2 C 14,5 km/h (3 Bft) 99,11 %
27.10.2015 12:15 11,3 C 84 % 1017,8 hPa 0,0 l/m 7,0 km/h (2 Bft) O 87 5 min 0,000 mm 1,2 UV-I 322 W/m 8,7 C 10,9 C 16,1 km/h (3 Bft) 100,00 %
27.10.2015 12:20 11,4 C 83 % 1017,7 hPa 0,0 l/m 5,2 km/h (1 Bft) O-SO 103 5 min 0,000 mm 1,3 UV-I 335 W/m 8,6 C 11,4 C 12,9 km/h (3 Bft) 100,00 %
27.10.2015 12:25 11,5 C 83 % 1017,7 hPa 0,0 l/m 8,5 km/h (2 Bft) O 86 5 min 0,000 mm 1,5 UV-I 376 W/m 8,7 C 10,1 C 14,5 km/h (3 Bft) 97,30 %
27.10.2015 12:30 11,8 C 84 % 1017,6 hPa 0,0 l/m 6,5 km/h (2 Bft) O-SO 120 5 min 0,000 mm 1,6 UV-I 451 W/m 9,2 C 11,8 C 16,1 km/h (3 Bft) 98,36 %
27.10.2015 12:35 12,1 C 82 % 1017,5 hPa 0,0 l/m 6,5 km/h (2 Bft) SO 130 5 min 0,000 mm 1,7 UV-I 521 W/m 9,1 C 12,1 C 14,5 km/h (3 Bft) 100,00 %
27.10.2015 12:40 12,0 C 82 % 1017,4 hPa 0,0 l/m 7,3 km/h (2 Bft) SO 133 5 min 0,000 mm 1,6 UV-I 448 W/m 9,0 C 11,4 C 14,5 km/h (3 Bft) 97,32 %
27.10.2015 12:45 11,8 C 83 % 1017,4 hPa 0,0 l/m 3,3 km/h (1 Bft) O-NO 67 5 min 0,000 mm 1,3 UV-I 341 W/m 9,0 C 11,8 C 6,4 km/h (2 Bft) 98,31 %
27.10.2015 12:50 12,1 C 84 % 1017,4 hPa 0,0 l/m 3,7 km/h (1 Bft) O-NO 75 0 min 0,000 mm 1,3 UV-I 199 W/m 9,5 C 12,1 C 6,4 km/h (2 Bft) 99,11 %
27.10.2015 12:55 12,7 C 81 % 1017,3 hPa 0,0 l/m 5,3 km/h (1 Bft) O-SO 103 5 min 0,000 mm 1,5 UV-I 509 W/m 9,5 C 12,7 C 14,5 km/h (3 Bft) 99,21 %
27.10.2015 13:00 12,9 C 80 % 1017,3 hPa 0,0 l/m 5,7 km/h (1 Bft) O 94 5 min 0,000 mm 1,5 UV-I 560 W/m 9,5 C 12,9 C 12,9 km/h (3 Bft) 99,11 %
27.10.2015 13:05 12,9 C 79 % 1017,2 hPa 0,0 l/m 6,0 km/h (2 Bft) NO 51 5 min 0,203 mm 1,5 UV-I 537 W/m 9,3 C 12,9 C 12,9 km/h (3 Bft) 99,03 %
27.10.2015 13:10 13,1 C 80 % 1017,1 hPa 0,0 l/m 5,4 km/h (1 Bft) O 101 5 min 0,000 mm 1,4 UV-I 516 W/m 9,7 C 13,1 C 9,7 km/h (2 Bft) 100,00 %
27.10.2015 13:15 13,1 C 79 % 1017,1 hPa 0,0 l/m 6,4 km/h (2 Bft) O-NO 57 5 min 0,000 mm 1,4 UV-I 483 W/m 9,5 C 13,1 C 12,9 km/h (3 Bft) 98,43 %
27.10.2015 13:20 13,1 C 80 % 1017,0 hPa 0,0 l/m 4,1 km/h (1 Bft) O-NO 78 5 min 0,000 mm 1,3 UV-I 398 W/m 9,7 C 13,1 C 6,4 km/h (2 Bft) 100,00 %
27.10.2015 13:25 12,8 C 81 % 1017,0 hPa 0,0 l/m 3,5 km/h (1 Bft) O-SO 114 0 min 0,000 mm 1,2 UV-I 188 W/m 9,6 C 12,8 C 11,3 km/h (2 Bft) 100,00 %
27.10.2015 13:30 12,9 C 81 % 1016,9 hPa 0,0 l/m 2,9 km/h (1 Bft) SO 127 5 min 0,000 mm 1,3 UV-I 337 W/m 9,7 C 12,9 C 6,4 km/h (2 Bft) 99,11 %
27.10.2015 13:35 13,2 C 78 % 1016,9 hPa 0,0 l/m 7,8 km/h (2 Bft) O-SO 111 5 min 0,000 mm 1,3 UV-I 406 W/m 9,4 C 12,3 C 14,5 km/h (3 Bft) 100,00 %
27.10.2015 13:40 13,3 C 78 % 1016,8 hPa 0,0 l/m 9,2 km/h (2 Bft) O-NO 67 5 min 0,000 mm 1,2 UV-I 393 W/m 9,5 C 11,7 C 16,1 km/h (3 Bft) 98,21 %
27.10.2015 13:45 13,3 C 79 % 1016,7 hPa 0,0 l/m 6,0 km/h (2 Bft) O-NO 76 5 min 0,000 mm 1,2 UV-I 399 W/m 9,7 C 13,3 C 14,5 km/h (3 Bft) 100,00 %
27.10.2015 13:50 13,6 C 78 % 1016,6 hPa 0,0 l/m 8,5 km/h (2 Bft) O 86 5 min 0,000 mm 1,1 UV-I 396 W/m 9,8 C 12,4 C 20,9 km/h (4 Bft) 99,11 %
27.10.2015 13:55 13,7 C 77 % 1016,6 hPa 0,0 l/m 8,5 km/h (2 Bft) NO 51 5 min 0,000 mm 1,1 UV-I 366 W/m 9,7 C 12,5 C 14,5 km/h (3 Bft) 100,00 %
27.10.2015 14:00 13,5 C 79 % 1016,6 hPa 0,0 l/m 5,0 km/h (1 Bft) O-NO 76 5 min 0,000 mm 1,0 UV-I 336 W/m 9,9 C 13,5 C 12,9 km/h (3 Bft) 99,12 %
27.10.2015 14:05 13,7 C 79 % 1016,7 hPa 0,0 l/m 4,5 km/h (1 Bft) O 80 5 min 0,203 mm 1,0 UV-I 297 W/m 10,1 C 13,7 C 11,3 km/h (2 Bft) 100,00 %
27.10.2015 14:10 13,8 C 78 % 1016,6 hPa 0,0 l/m 5,4 km/h (1 Bft) O 94 5 min 0,000 mm 0,9 UV-I 367 W/m 10,0 C 13,8 C 9,7 km/h (2 Bft) 98,21 %
27.10.2015 14:15 13,7 C 77 % 1016,7 hPa 0,0 l/m 7,1 km/h (2 Bft) O-NO 67 5 min 0,000 mm 0,9 UV-I 333 W/m 9,7 C 13,3 C 16,1 km/h (3 Bft) 100,00 %
27.10.2015 14:20 13,8 C 78 % 1016,7 hPa 0,0 l/m 5,7 km/h (1 Bft) O 90 5 min 0,000 mm 0,8 UV-I 310 W/m 10,0 C 13,8 C 11,3 km/h (2 Bft) 99,11 %
27.10.2015 14:25 13,8 C 77 % 1016,6 hPa 0,0 l/m 5,4 km/h (1 Bft) O-SO 103 5 min 0,000 mm 0,8 UV-I 304 W/m 9,8 C 13,8 C 12,9 km/h (3 Bft) 100,00 %
27.10.2015 14:30 13,8 C 78 % 1016,6 hPa 0,0 l/m 5,2 km/h (1 Bft) O-SO 104 5 min 0,000 mm 0,7 UV-I 289 W/m 10,0 C 13,8 C 12,9 km/h (3 Bft) 98,37 %
27.10.2015 14:35 13,8 C 78 % 1016,5 hPa 0,0 l/m 5,0 km/h (1 Bft) O 94 5 min 0,000 mm 0,7 UV-I 275 W/m 10,0 C 13,8 C 11,3 km/h (2 Bft) 98,26 %
27.10.2015 14:40 13,9 C 77 % 1016,4 hPa 0,0 l/m 7,9 km/h (2 Bft) O-NO 66 5 min 0,000 mm 0,6 UV-I 261 W/m 9,9 C 13,0 C 14,5 km/h (3 Bft) 100,00 %
27.10.2015 14:45 14,0 C 77 % 1016,4 hPa 0,0 l/m 7,5 km/h (2 Bft) SO 132 5 min 0,000 mm 0,6 UV-I 250 W/m 10,0 C 13,3 C 14,5 km/h (3 Bft) 100,00 %
27.10.2015 14:50 13,9 C 77 % 1016,4 hPa 0,0 l/m 6,1 km/h (2 Bft) O 101 5 min 0,000 mm 0,5 UV-I 223 W/m 9,9 C 13,9 C 12,9 km/h (3 Bft) 100,00 %
27.10.2015 14:55 13,9 C 77 % 1016,3 hPa 0,0 l/m 5,5 km/h (1 Bft) O-SO 107 5 min 0,000 mm 0,5 UV-I 229 W/m 9,9 C 13,9 C 11,3 km/h (2 Bft) 100,00 %
27.10.2015 15:00 13,8 C 77 % 1016,4 hPa 0,0 l/m 7,1 km/h (2 Bft) O-SO 104 5 min 0,153 mm 0,5 UV-I 218 W/m 9,8 C 13,4 C 12,9 km/h (3 Bft) 100,00 %
27.10.2015 15:05 13,9 C 77 % 1016,3 hPa 0,0 l/m 4,5 km/h (1 Bft) O-SO 117 5 min 0,000 mm 0,1 UV-I 209 W/m 9,9 C 13,9 C 11,3 km/h (2 Bft) 97,32 %
27.10.2015 15:10 13,9 C 78 % 1016,2 hPa 0,0 l/m 5,9 km/h (2 Bft) O 82 0 min 0,000 mm 0,0 UV-I 191 W/m 10,1 C 13,9 C 11,3 km/h (2 Bft) 100,00 %
27.10.2015 15:15 14,0 C 77 % 1016,2 hPa 0,0 l/m 6,1 km/h (2 Bft) O 98 0 min 0,000 mm 0,0 UV-I 175 W/m 10,0 C 14,0 C 12,9 km/h (3 Bft) 98,31 %
27.10.2015 15:20 14,0 C 78 % 1016,2 hPa 0,0 l/m 6,0 km/h (2 Bft) O-NO 70 0 min 0,000 mm 0,0 UV-I 166 W/m 10,2 C 14,0 C 12,9 km/h (3 Bft) 99,12 %
27.10.2015 15:25 13,9 C 77 % 1016,2 hPa 0,0 l/m 7,3 km/h (2 Bft) O 82 0 min 0,000 mm 0,0 UV-I 154 W/m 9,9 C 13,4 C 12,9 km/h (3 Bft) 100,00 %
27.10.2015 15:30 14,0 C 78 % 1016,2 hPa 0,0 l/m 4,9 km/h (1 Bft) O 98 0 min 0,000 mm 0,0 UV-I 143 W/m 10,2 C 14,0 C 9,7 km/h (2 Bft) 100,00 %
27.10.2015 15:35 13,9 C 77 % 1016,2 hPa 0,0 l/m 6,0 km/h (2 Bft) O-NO 75 0 min 0,000 mm 0,0 UV-I 131 W/m 9,9 C 13,9 C 11,3 km/h (2 Bft) 100,00 %
27.10.2015 15:40 13,8 C 79 % 1016,2 hPa 0,0 l/m 5,7 km/h (1 Bft) O-NO 65 0 min 0,000 mm 0,0 UV-I 117 W/m 10,2 C 13,8 C 12,9 km/h (3 Bft) 100,00 %
27.10.2015 15:45 13,8 C 78 % 1016,1 hPa 0,0 l/m 4,0 km/h (1 Bft) O 90 0 min 0,000 mm 0,0 UV-I 101 W/m 10,0 C 13,8 C 6,4 km/h (2 Bft) 98,35 %
27.10.2015 15:50 13,7 C 78 % 1016,1 hPa 0,0 l/m 5,2 km/h (1 Bft) NO 46 0 min 0,000 mm 0,0 UV-I 94 W/m 9,9 C 13,7 C 9,7 km/h (2 Bft) 99,17 %
27.10.2015 15:55 13,7 C 78 % 1016,1 hPa 0,0 l/m 8,6 km/h (2 Bft) O 84 0 min 0,000 mm 0,0 UV-I 83 W/m 9,9 C 12,4 C 16,1 km/h (3 Bft) 100,00 %
27.10.2015 16:00 13,6 C 79 % 1016,1 hPa 0,0 l/m 7,2 km/h (2 Bft) O 93 0 min 0,076 mm 0,0 UV-I 74 W/m 10,0 C 13,1 C 11,3 km/h (2 Bft) 100,00 %
27.10.2015 16:05 13,4 C 79 % 1016,0 hPa 0,0 l/m 4,7 km/h (1 Bft) NO 51 0 min 0,000 mm 0,0 UV-I 65 W/m 9,8 C 13,4 C 8,0 km/h (2 Bft) 98,21 %
27.10.2015 16:10 13,3 C 79 % 1016,0 hPa 0,0 l/m 6,7 km/h (2 Bft) SO 125 0 min 0,000 mm 0,0 UV-I 54 W/m 9,7 C 13,1 C 12,9 km/h (3 Bft) 99,13 %
27.10.2015 16:15 13,2 C 79 % 1015,9 hPa 0,0 l/m 5,6 km/h (1 Bft) NO 50 0 min 0,000 mm 0,0 UV-I 48 W/m 9,6 C 13,2 C 11,3 km/h (2 Bft) 99,15 %
27.10.2015 16:20 13,1 C 79 % 1015,9 hPa 0,0 l/m 5,3 km/h (1 Bft) O 86 0 min 0,000 mm 0,0 UV-I 39 W/m 9,5 C 13,1 C 11,3 km/h (2 Bft) 100,00 %
27.10.2015 16:25 13,1 C 79 % 1015,9 hPa 0,0 l/m 7,5 km/h (2 Bft) O-NO 69 0 min 0,000 mm 0,0 UV-I 31 W/m 9,5 C 12,4 C 17,7 km/h (3 Bft) 100,00 %
27.10.2015 16:30 12,9 C 79 % 1016,0 hPa 0,0 l/m 5,0 km/h (1 Bft) O 88 0 min 0,000 mm 0,0 UV-I 26 W/m 9,3 C 12,9 C 12,9 km/h (3 Bft) 100,00 %
27.10.2015 16:35 12,8 C 80 % 1015,9 hPa 0,0 l/m 5,4 km/h (1 Bft) O 96 0 min 0,000 mm 0,0 UV-I 21 W/m 9,4 C 12,8 C 9,7 km/h (2 Bft) 99,11 %
27.10.2015 16:40 12,6 C 80 % 1015,9 hPa 0,0 l/m 5,3 km/h (1 Bft) O-NO 67 0 min 0,000 mm 0,0 UV-I 17 W/m 9,2 C 12,6 C 12,9 km/h (3 Bft) 100,00 %
27.10.2015 16:45 12,4 C 81 % 1015,9 hPa 0,0 l/m 4,3 km/h (1 Bft) O-NO 57 0 min 0,000 mm 0,0 UV-I 12 W/m 9,2 C 12,4 C 6,4 km/h (2 Bft) 98,37 %
27.10.2015 16:50 12,2 C 81 % 1015,9 hPa 0,0 l/m 4,5 km/h (1 Bft) O-NO 66 0 min 0,000 mm 0,0 UV-I 10 W/m 9,0 C 12,2 C 8,0 km/h (2 Bft) 100,00 %
27.10.2015 16:55 11,9 C 83 % 1015,8 hPa 0,0 l/m 3,3 km/h (1 Bft) O 79 0 min 0,000 mm 0,0 UV-I 6 W/m 9,1 C 11,9 C 4,8 km/h (1 Bft) 100,00 %
27.10.2015 17:00 11,7 C 83 % 1015,9 hPa 0,0 l/m 2,7 km/h (1 Bft) O 94 0 min 0,025 mm 0,0 UV-I 4 W/m 8,9 C 11,7 C 4,8 km/h (1 Bft) 98,58 %
27.10.2015 17:05 11,5 C 84 % 1015,9 hPa 0,0 l/m 1,8 km/h (1 Bft) O 89 0 min 0,000 mm 0,0 UV-I 0 W/m 8,9 C 11,5 C 4,8 km/h (1 Bft) 100,00 %
27.10.2015 17:10 11,3 C 84 % 1015,9 hPa 0,0 l/m 3,4 km/h (1 Bft) O 90 0 min 0,000 mm 0,0 UV-I 0 W/m 8,7 C 11,3 C 12,9 km/h (3 Bft) 99,10 %
27.10.2015 17:15 11,5 C 83 % 1015,9 hPa 0,0 l/m 7,8 km/h (2 Bft) O-NO 75 0 min 0,000 mm 0,0 UV-I 0 W/m 8,7 C 10,6 C 17,7 km/h (3 Bft) 100,00 %
27.10.2015 17:20 11,8 C 81 % 1015,8 hPa 0,0 l/m 8,4 km/h (2 Bft) O-SO 120 0 min 0,000 mm 0,0 UV-I 0 W/m 8,6 C 10,5 C 17,7 km/h (3 Bft) 100,00 %
27.10.2015 17:25 11,9 C 81 % 1015,9 hPa 0,0 l/m 9,7 km/h (2 Bft) O 100 0 min 0,000 mm 0,0 UV-I 0 W/m 8,7 C 9,9 C 17,7 km/h (3 Bft) 98,29 %
27.10.2015 17:30 11,9 C 80 % 1015,9 hPa 0,0 l/m 8,1 km/h (2 Bft) O-NO 72 0 min 0,000 mm 0,0 UV-I 0 W/m 8,6 C 10,8 C 14,5 km/h (3 Bft) 98,39 %
27.10.2015 17:35 12,0 C 79 % 1015,8 hPa 0,0 l/m 11,2 km/h (2 Bft) O-NO 69 0 min 0,000 mm 0,0 UV-I 0 W/m 8,5 C 9,2 C 20,9 km/h (4 Bft) 100,00 %
27.10.2015 17:40 11,9 C 80 % 1015,9 hPa 0,0 l/m 8,3 km/h (2 Bft) O-SO 109 0 min 0,000 mm 0,0 UV-I 0 W/m 8,6 C 10,7 C 17,7 km/h (3 Bft) 99,11 %
27.10.2015 17:45 11,6 C 81 % 1015,9 hPa 0,0 l/m 4,2 km/h (1 Bft) O-NO 74 0 min 0,000 mm 0,0 UV-I 0 W/m 8,5 C 11,6 C 9,7 km/h (2 Bft) 98,43 %
27.10.2015 17:50 11,4 C 82 % 1015,9 hPa 0,0 l/m 5,4 km/h (1 Bft) O-NO 57 0 min 0,000 mm 0,0 UV-I 0 W/m 8,4 C 11,4 C 11,3 km/h (2 Bft) 100,00 %
27.10.2015 17:55 11,1 C 83 % 1015,9 hPa 0,0 l/m 2,2 km/h (1 Bft) O 92 0 min 0,000 mm 0,0 UV-I 0 W/m 8,3 C 11,1 C 6,4 km/h (2 Bft) 98,26 %
27.10.2015 18:00 10,8 C 84 % 1015,9 hPa 0,0 l/m 2,1 km/h (1 Bft) NO 44 0 min 0,000 mm 0,0 UV-I 0 W/m 8,2 C 10,8 C 4,8 km/h (1 Bft) 99,17 %
27.10.2015 18:05 10,8 C 84 % 1015,9 hPa 0,0 l/m 3,6 km/h (1 Bft) O 91 0 min 0,026 mm 0,0 UV-I 0 W/m 8,2 C 10,8 C 9,7 km/h (2 Bft) 99,13 %
27.10.2015 18:10 10,7 C 84 % 1015,9 hPa 0,0 l/m 3,9 km/h (1 Bft) O-NO 70 0 min 0,000 mm 0,0 UV-I 0 W/m 8,1 C 10,7 C 8,0 km/h (2 Bft) 99,15 %
27.10.2015 18:15 10,5 C 85 % 1015,8 hPa 0,0 l/m 2,8 km/h (1 Bft) O-NO 78 0 min 0,000 mm 0,0 UV-I 0 W/m 8,1 C 10,5 C 8,0 km/h (2 Bft) 98,17 %
27.10.2015 18:20 10,3 C 85 % 1015,8 hPa 0,0 l/m 1,9 km/h (1 Bft) O-NO 71 0 min 0,000 mm 0,0 UV-I 0 W/m 7,9 C 10,3 C 4,8 km/h (1 Bft) 95,35 %
27.10.2015 18:25 10,3 C 85 % 1015,8 hPa 0,0 l/m 3,0 km/h (1 Bft) O-NO 73 0 min 0,000 mm 0,0 UV-I 0 W/m 7,9 C 10,3 C 6,4 km/h (2 Bft) 100,00 %
27.10.2015 18:30 10,2 C 86 % 1015,9 hPa 0,0 l/m 4,6 km/h (1 Bft) O-NO 74 0 min 0,000 mm 0,0 UV-I 0 W/m 8,0 C 10,2 C 6,4 km/h (2 Bft) 100,00 %
27.10.2015 18:35 10,1 C 86 % 1016,0 hPa 0,0 l/m 2,3 km/h (1 Bft) O-NO 78 0 min 0,000 mm 0,0 UV-I 0 W/m 7,9 C 10,1 C 6,4 km/h (2 Bft) 99,19 %
27.10.2015 18:40 9,9 C 86 % 1015,9 hPa 0,0 l/m 1,6 km/h (1 Bft) O 98 0 min 0,000 mm 0,0 UV-I 0 W/m 7,7 C 9,9 C 3,2 km/h (1 Bft) 99,08 %
27.10.2015 18:45 9,8 C 86 % 1015,9 hPa 0,0 l/m 1,5 km/h (1 Bft) NO 47 0 min 0,000 mm 0,0 UV-I 0 W/m 7,6 C 9,8 C 3,2 km/h (1 Bft) 100,00 %
27.10.2015 18:55 9,6 C 88 % 1015,9 hPa 0,0 l/m 2,9 km/h (1 Bft) O 98 0 min 0,000 mm 0,0 UV-I 0 W/m 7,7 C 9,6 C 4,8 km/h (1 Bft) 99,66 %
27.10.2015 19:00 9,7 C 87 % 1015,8 hPa 0,0 l/m 3,6 km/h (1 Bft) O-NO 65 0 min 0,000 mm 0,0 UV-I 0 W/m 7,6 C 9,7 C 11,3 km/h (2 Bft) 98,21 %
27.10.2015 19:05 9,7 C 87 % 1015,9 hPa 0,0 l/m 3,3 km/h (1 Bft) O-NO 78 0 min 0,000 mm 0,0 UV-I 0 W/m 7,6 C 9,7 C 6,4 km/h (2 Bft) 100,00 %
27.10.2015 19:10 9,6 C 87 % 1015,8 hPa 0,0 l/m 2,4 km/h (1 Bft) NO 46 0 min 0,000 mm 0,0 UV-I 0 W/m 7,5 C 9,6 C 6,4 km/h (2 Bft) 100,00 %
27.10.2015 19:15 9,5 C 87 % 1015,8 hPa 0,0 l/m 2,5 km/h (1 Bft) O 85 0 min 0,000 mm 0,0 UV-I 0 W/m 7,4 C 9,5 C 6,4 km/h (2 Bft) 98,21 %
27.10.2015 19:20 9,4 C 87 % 1015,9 hPa 0,0 l/m 1,5 km/h (1 Bft) O-NO 61 0 min 0,000 mm 0,0 UV-I 0 W/m 7,3 C 9,4 C 4,8 km/h (1 Bft) 100,00 %
27.10.2015 19:25 9,3 C 88 % 1015,9 hPa 0,0 l/m 1,7 km/h (1 Bft) O-NO 63 0 min 0,000 mm 0,0 UV-I 0 W/m 7,4 C 9,3 C 4,8 km/h (1 Bft) 99,19 %
27.10.2015 19:30 9,3 C 88 % 1015,9 hPa 0,0 l/m 1,4 km/h (1 Bft) O-NO 69 0 min 0,000 mm 0,0 UV-I 0 W/m 7,4 C 9,3 C 3,2 km/h (1 Bft) 99,11 %
27.10.2015 19:35 9,2 C 88 % 1015,9 hPa 0,0 l/m 0,9 km/h (0 Bft) O-NO 62 0 min 0,000 mm 0,0 UV-I 0 W/m 7,3 C 9,2 C 3,2 km/h (1 Bft) 99,11 %
27.10.2015 19:40 9,1 C 89 % 1015,9 hPa 0,0 l/m 1,9 km/h (1 Bft) O 82 0 min 0,000 mm 0,0 UV-I 0 W/m 7,4 C 9,1 C 4,8 km/h (1 Bft) 99,21 %
27.10.2015 19:45 9,1 C 88 % 1015,7 hPa 0,0 l/m 2,2 km/h (1 Bft) O-NO 71 0 min 0,000 mm 0,0 UV-I 0 W/m 7,2 C 9,1 C 6,4 km/h (2 Bft) 100,00 %
27.10.2015 19:50 8,8 C 89 % 1015,7 hPa 0,0 l/m 1,8 km/h (1 Bft) O-SO 115 0 min 0,000 mm 0,0 UV-I 0 W/m 7,1 C 8,8 C 4,8 km/h (1 Bft) 100,00 %
27.10.2015 19:55 8,7 C 89 % 1015,8 hPa 0,0 l/m 2,4 km/h (1 Bft) O-NO 74 0 min 0,000 mm 0,0 UV-I 0 W/m 7,0 C 8,7 C 6,4 km/h (2 Bft) 100,00 %
27.10.2015 20:00 8,7 C 89 % 1015,7 hPa 0,0 l/m 1,8 km/h (1 Bft) NO 39 0 min 0,000 mm 0,0 UV-I 0 W/m 7,0 C 8,7 C 4,8 km/h (1 Bft) 98,35 %
27.10.2015 20:05 8,7 C 90 % 1015,9 hPa 0,0 l/m 1,9 km/h (1 Bft) O-NO 68 0 min 0,000 mm 0,0 UV-I 0 W/m 7,2 C 8,7 C 4,8 km/h (1 Bft) 99,10 %
27.10.2015 20:10 8,6 C 90 % 1015,9 hPa 0,0 l/m 0,7 km/h (0 Bft) O-NO 69 0 min 0,000 mm 0,0 UV-I 0 W/m 7,1 C 8,6 C 3,2 km/h (1 Bft) 100,00 %
27.10.2015 20:15 8,4 C 90 % 1015,9 hPa 0,0 l/m 0,3 km/h (0 Bft) O-NO 69 0 min 0,000 mm 0,0 UV-I 0 W/m 6,9 C 8,4 C 1,6 km/h (1 Bft) 100,00 %
27.10.2015 20:20 8,2 C 91 % 1015,9 hPa 0,0 l/m 0,3 km/h (0 Bft) O-NO 69 0 min 0,000 mm 0,0 UV-I 0 W/m 6,8 C 8,2 C 1,6 km/h (1 Bft) 99,11 %
27.10.2015 20:25 8,1 C 91 % 1015,9 hPa 0,0 l/m 0,5 km/h (0 Bft) O-NO 62 0 min 0,000 mm 0,0 UV-I 0 W/m 6,7 C 8,1 C 3,2 km/h (1 Bft) 100,00 %
27.10.2015 20:30 8,0 C 91 % 1015,9 hPa 0,0 l/m 1,1 km/h (1 Bft) O-NO 67 0 min 0,000 mm 0,0 UV-I 0 W/m 6,6 C 8,0 C 3,2 km/h (1 Bft) 100,00 %
27.10.2015 20:35 8,0 C 91 % 1015,8 hPa 0,0 l/m 0,7 km/h (0 Bft) NO 52 0 min 0,000 mm 0,0 UV-I 0 W/m 6,6 C 8,0 C 3,2 km/h (1 Bft) 99,28 %
27.10.2015 20:40 7,9 C 92 % 1015,7 hPa 0,0 l/m 1,2 km/h (1 Bft) O-NO 73 0 min 0,000 mm 0,0 UV-I 0 W/m 6,7 C 7,9 C 3,2 km/h (1 Bft) 98,21 %
27.10.2015 20:45 7,8 C 91 % 1015,7 hPa 0,0 l/m 1,7 km/h (1 Bft) NO 38 0 min 0,000 mm 0,0 UV-I 0 W/m 6,4 C 7,8 C 4,8 km/h (1 Bft) 96,85 %
27.10.2015 20:50 7,7 C 92 % 1015,7 hPa 0,0 l/m 0,7 km/h (0 Bft) NO 37 0 min 0,000 mm 0,0 UV-I 0 W/m 6,5 C 7,7 C 3,2 km/h (1 Bft) 99,08 %
27.10.2015 20:55 7,7 C 93 % 1015,6 hPa 0,0 l/m 1,8 km/h (1 Bft) O-NO 57 0 min 0,000 mm 0,0 UV-I 0 W/m 6,6 C 7,7 C 4,8 km/h (1 Bft) 100,00 %
27.10.2015 21:00 7,8 C 92 % 1015,6 hPa 0,0 l/m 2,2 km/h (1 Bft) N-NO 22 0 min 0,000 mm 0,0 UV-I 0 W/m 6,6 C 7,8 C 6,4 km/h (2 Bft) 99,11 %
27.10.2015 21:05 7,8 C 92 % 1015,8 hPa 0,0 l/m 1,5 km/h (1 Bft) O 82 0 min 0,000 mm 0,0 UV-I 0 W/m 6,6 C 7,8 C 4,8 km/h (1 Bft) 99,13 %
27.10.2015 21:10 7,8 C 92 % 1015,8 hPa 0,0 l/m 0,9 km/h (0 Bft) O-NO 78 0 min 0,000 mm 0,0 UV-I 0 W/m 6,6 C 7,8 C 3,2 km/h (1 Bft) 98,37 %
27.10.2015 21:15 7,7 C 92 % 1015,9 hPa 0,0 l/m 0,5 km/h (0 Bft) O-NO 61 0 min 0,000 mm 0,0 UV-I 0 W/m 6,5 C 7,7 C 1,6 km/h (1 Bft) 100,00 %
27.10.2015 21:20 7,6 C 92 % 1016,0 hPa 0,0 l/m 1,0 km/h (0 Bft) O 82 0 min 0,000 mm 0,0 UV-I 0 W/m 6,4 C 7,6 C 3,2 km/h (1 Bft) 98,17 %
27.10.2015 21:25 7,5 C 93 % 1015,9 hPa 0,0 l/m 0,3 km/h (0 Bft) O-NO 77 0 min 0,000 mm 0,0 UV-I 0 W/m 6,4 C 7,5 C 3,2 km/h (1 Bft) 99,19 %
27.10.2015 21:30 7,5 C 92 % 1015,8 hPa 0,0 l/m 0,3 km/h (0 Bft) O 81 0 min 0,000 mm 0,0 UV-I 0 W/m 6,3 C 7,5 C 3,2 km/h (1 Bft) 99,15 %
27.10.2015 21:35 7,5 C 93 % 1015,9 hPa 0,0 l/m 0,1 km/h (0 Bft) O 81 0 min 0,000 mm 0,0 UV-I 0 W/m 6,4 C 7,5 C 1,6 km/h (1 Bft) 100,00 %
27.10.2015 21:40 7,5 C 93 % 1015,8 hPa 0,0 l/m 0,6 km/h (0 Bft) O-NO 78 0 min 0,000 mm 0,0 UV-I 0 W/m 6,4 C 7,5 C 3,2 km/h (1 Bft) 100,00 %
27.10.2015 21:45 7,4 C 93 % 1015,8 hPa 0,0 l/m 0,7 km/h (0 Bft) O-NO 78 0 min 0,000 mm 0,0 UV-I 0 W/m 6,3 C 7,4 C 3,2 km/h (1 Bft) 99,15 %
27.10.2015 21:50 7,4 C 92 % 1015,8 hPa 0,0 l/m 1,2 km/h (1 Bft) O-NO 78 0 min 0,000 mm 0,0 UV-I 0 W/m 6,2 C 7,4 C 4,8 km/h (1 Bft) 100,00 %
27.10.2015 21:55 7,2 C 93 % 1015,8 hPa 0,0 l/m 0,7 km/h (0 Bft) O 85 0 min 0,000 mm 0,0 UV-I 0 W/m 6,1 C 7,2 C 1,6 km/h (1 Bft) 99,13 %
27.10.2015 22:00 7,2 C 94 % 1015,8 hPa 0,0 l/m 0,1 km/h (0 Bft) O 85 0 min 0,000 mm 0,0 UV-I 0 W/m 6,3 C 7,2 C 1,6 km/h (1 Bft) 100,00 %
27.10.2015 22:05 7,2 C 94 % 1015,8 hPa 0,0 l/m 1,0 km/h (0 Bft) O-NO 74 0 min 0,000 mm 0,0 UV-I 0 W/m 6,3 C 7,2 C 3,2 km/h (1 Bft) 99,19 %
27.10.2015 22:10 7,2 C 93 % 1015,8 hPa 0,0 l/m 0,8 km/h (0 Bft) NO 55 0 min 0,000 mm 0,0 UV-I 0 W/m 6,1 C 7,2 C 3,2 km/h (1 Bft) 99,09 %
27.10.2015 22:15 7,1 C 93 % 1015,8 hPa 0,0 l/m 0,2 km/h (0 Bft) NO 55 0 min 0,000 mm 0,0 UV-I 0 W/m 6,0 C 7,1 C 1,6 km/h (1 Bft) 98,41 %
27.10.2015 22:20 6,7 C 93 % 1015,9 hPa 0,0 l/m 0,7 km/h (0 Bft) NO 55 0 min 0,000 mm 0,0 UV-I 0 W/m 5,6 C 6,7 C 1,6 km/h (1 Bft) 100,00 %
27.10.2015 22:25 6,4 C 94 % 1015,8 hPa 0,0 l/m 0,1 km/h (0 Bft) NO 55 0 min 0,000 mm 0,0 UV-I 0 W/m 5,5 C 6,4 C 1,6 km/h (1 Bft) 99,19 %
27.10.2015 22:30 6,2 C 95 % 1015,8 hPa 0,0 l/m 0,8 km/h (0 Bft) NO 56 0 min 0,000 mm 0,0 UV-I 0 W/m 5,5 C 6,2 C 3,2 km/h (1 Bft) 99,10 %
27.10.2015 22:35 6,3 C 96 % 1015,8 hPa 0,0 l/m 0,1 km/h (0 Bft) NO 56 0 min 0,000 mm 0,0 UV-I 0 W/m 5,7 C 6,3 C 1,6 km/h (1 Bft) 99,17 %
27.10.2015 22:40 6,8 C 96 % 1015,7 hPa 0,0 l/m 0,0 km/h (0 Bft) NO 56 0 min 0,000 mm 0,0 UV-I 0 W/m 6,2 C 6,8 C 0,0 km/h (0 Bft) 97,52 %
27.10.2015 22:45 7,0 C 95 % 1015,7 hPa 0,0 l/m 0,0 km/h (0 Bft) NO 56 0 min 0,000 mm 0,0 UV-I 0 W/m 6,3 C 7,0 C 0,0 km/h (0 Bft) 99,12 %
27.10.2015 22:50 6,9 C 94 % 1015,7 hPa 0,0 l/m 0,0 km/h (0 Bft) NO 56 0 min 0,000 mm 0,0 UV-I 0 W/m 6,0 C 6,9 C 0,0 km/h (0 Bft) 99,15 %
27.10.2015 22:55 6,5 C 94 % 1015,7 hPa 0,0 l/m 0,0 km/h (0 Bft) NO 56 0 min 0,000 mm 0,0 UV-I 0 W/m 5,6 C 6,5 C 0,0 km/h (0 Bft) 97,44 %
27.10.2015 23:00 6,2 C 95 % 1015,7 hPa 0,0 l/m 0,0 km/h (0 Bft) NO 56 0 min 0,000 mm 0,0 UV-I 0 W/m 5,5 C 6,2 C 0,0 km/h (0 Bft) 99,11 %
27.10.2015 23:05 5,9 C 95 % 1015,6 hPa 0,0 l/m 0,1 km/h (0 Bft) NO 56 0 min 0,000 mm 0,0 UV-I 0 W/m 5,2 C 5,9 C 1,6 km/h (1 Bft) 100,00 %
27.10.2015 23:10 5,8 C 96 % 1015,5 hPa 0,0 l/m 0,1 km/h (0 Bft) NO 56 0 min 0,000 mm 0,0 UV-I 0 W/m 5,2 C 5,8 C 1,6 km/h (1 Bft) 100,00 %
27.10.2015 23:15 5,9 C 96 % 1015,6 hPa 0,0 l/m 0,2 km/h (0 Bft) NO 56 0 min 0,000 mm 0,0 UV-I 0 W/m 5,3 C 5,9 C 1,6 km/h (1 Bft) 98,21 %
27.10.2015 23:20 5,6 C 95 % 1015,8 hPa 0,0 l/m 1,3 km/h (1 Bft) NO 56 0 min 0,000 mm 0,0 UV-I 0 W/m 4,9 C 5,6 C 3,2 km/h (1 Bft) 99,19 %
27.10.2015 23:25 5,3 C 95 % 1015,8 hPa 0,0 l/m 0,5 km/h (0 Bft) NO 56 0 min 0,000 mm 0,0 UV-I 0 W/m 4,6 C 5,3 C 1,6 km/h (1 Bft) 100,00 %
27.10.2015 23:30 5,2 C 96 % 1015,8 hPa 0,0 l/m 0,0 km/h (0 Bft) NO 56 0 min 0,000 mm 0,0 UV-I 0 W/m 4,6 C 5,2 C 0,0 km/h (0 Bft) 100,00 %
27.10.2015 23:35 4,9 C 95 % 1015,8 hPa 0,0 l/m 1,5 km/h (1 Bft) O-NO 78 0 min 0,000 mm 0,0 UV-I 0 W/m 4,2 C 4,9 C 3,2 km/h (1 Bft) 99,19 %
27.10.2015 23:40 4,9 C 96 % 1015,8 hPa 0,0 l/m 0,4 km/h (0 Bft) O-NO 78 0 min 0,000 mm 0,0 UV-I 0 W/m 4,3 C 4,9 C 3,2 km/h (1 Bft) 100,00 %
27.10.2015 23:45 4,9 C 97 % 1015,8 hPa 0,0 l/m 0,0 km/h (0 Bft) O-NO 78 0 min 0,000 mm 0,0 UV-I 0 W/m 4,5 C 4,9 C 1,6 km/h (1 Bft) 100,00 %
27.10.2015 23:50 5,1 C 97 % 1015,8 hPa 0,0 l/m 0,1 km/h (0 Bft) O-NO 78 0 min 0,000 mm 0,0 UV-I 0 W/m 4,7 C 5,1 C 1,6 km/h (1 Bft) 97,25 %
27.10.2015 23:55 5,2 C 97 % 1015,6 hPa 0,0 l/m 0,0 km/h (0 Bft) O-NO 78 0 min 0,000 mm 0,0 UV-I 0 W/m 4,8 C 5,2 C 0,0 km/h (0 Bft) 100,00 %
_ Min-Zeit 23:40 13:55 23:10 - 22:40 - - - - - - 23:35 01:30 22:40 18:20
Minimum _ 4,8 C 77 % 1015,5 hPa - 0,0 km/h (0 Bft) - - - - - - 4,2 C 4,5 C 0,0 km/h (0 Bft) 95,35 %
_ Max-Zeit 14:45 23:45 00:00 00:00 01:30 - - 07:55 13:05 12:35 13:00 15:20 15:15 01:25 00:00
Maximum _ 14,0 C 97 % 1018,9 hPa 0,0 l/m 15,3 km/h
O (3 Bft)
- - 5 min 0,203 mm 1,7 UV-I 560 W/m 10,2 C 14,0 C 25,7 km/h
O-NO (4 Bft)
100,00 %
Durchschnitt _ 9,8 C 88 % 1017,3 hPa #0,0 l/m 5,7 km/h (1 Bft) O - #3:25 h #0,991 mm 0,9 UV-I 170 W/m 7,9 C 9,1 C 11,5 km/h (2 Bft) 99,24 %